Home   Weather   Fairfield Center   Past weeks
Flag for USA

Past Weather in Fairfield Center, Indiana, USA — Yesterday and Last 2 Weeks

Now
24 °F

Passing clouds.


Feels Like: 24 °F
Forecast: 40 / 23 °F
Wind: No wind

Location: Fort Wayne International Airport

Current Time: Dec 7, 2019 at 1:22:38 am

Latest Report: Dec 7, 2019 at 12:54 am


Visibility: 10 mi

Pressure: 30.39 "Hg

Humidity: 81%

Dew Point: 19 °F

Location of Fairfield CenterLocation

Past Weather in Fairfield Center — Graph

°F

Fairfield Center Temperature Yesterday

Maximum temperature yesterday: 43 °F (at 4:54 am)
Minimum temperature yesterday: 24 °F (at 11:54 pm)
Average temperature yesterday: 38 °F

High & Low Weather Summary for the Past Weeks

 TemperatureHumidityPressure
High56 °F (Nov 27, 5:44 am)100% (Dec 1, 8:54 am)30.47 "Hg (Dec 1, 8:54 am)
Low22 °F (Nov 23, 4:54 am)49% (Dec 5, 1:54 pm)29.33 "Hg (Dec 1, 5:34 am)
Average37 °F81%29.88 "Hg
* Reported Nov 21 11:54 pm — Dec 6 11:54 pm, Fairfield Center. Weather by CustomWeather, © 2019

Note: Actual official high and low records may vary slightly from our data, if they occured in-between our weather recording intervals... More about our weather records

Fairfield Center Weather History for the Previous 24 Hours

Scroll right to see more
 ConditionsComfort  
Time TempWeatherWind HumidityBarometerVisibility
11:54 pm
Fri, Dec 6
24 °FPassing clouds.5 mph77%30.39 "Hg10 mi
10:54 pm27 °FPassing clouds.No wind78%30.38 "Hg10 mi
9:54 pm28 °FClear.5 mph75%30.38 "Hg10 mi
8:54 pm29 °FClear.3 mph75%30.36 "Hg10 mi
7:54 pm30 °FClear.5 mph72%30.35 "Hg10 mi
6:54 pm30 °FPassing clouds.No wind72%30.32 "Hg10 mi
5:54 pm33 °FPassing clouds.5 mph66%30.31 "Hg10 mi
4:54 pm36 °FPassing clouds.8 mph62%30.29 "Hg10 mi
3:54 pm40 °FScattered clouds.14 mph55%30.25 "Hg10 mi
2:54 pm42 °FPartly sunny.13 mph53%30.21 "Hg10 mi
1:54 pm43 °FPassing clouds.15 mph53%30.20 "Hg10 mi
12:54 pm43 °FScattered clouds.16 mph56%30.19 "Hg10 mi
11:54 am42 °FPartly sunny.18 mph60%30.17 "Hg10 mi
11:38 am43 °FMore clouds than sun.17 mph58%30.15 "Hg10 mi
10:54 am42 °FOvercast.10 mph71%30.15 "Hg10 mi
9:54 am41 °FOvercast.10 mph76%30.11 "Hg10 mi
8:54 am42 °FOvercast.12 mph79%30.07 "Hg8 mi
8:11 am42 °FPartly sunny.14 mph79%30.02 "Hg10 mi
7:54 am42 °FBroken clouds.10 mph76%30.02 "Hg10 mi
6:54 am41 °FPartly cloudy.7 mph76%29.98 "Hg10 mi
5:54 am42 °FMostly cloudy.6 mph73%29.97 "Hg10 mi
4:54 am43 °FOvercast.7 mph71%29.97 "Hg10 mi
3:54 am42 °FPassing clouds.10 mph71%29.97 "Hg10 mi
2:54 am39 °FOvercast.9 mph73%29.98 "Hg10 mi
1:54 am36 °FPartly cloudy.8 mph79%29.98 "Hg10 mi
Weather by CustomWeather, © 2019

See weather overview

Advertising